User: anonymous   Login
Location: PACMO
(41.3967°N, 90.3760°W)
Time: 18:27:56
(UTC-05:00)
Language:

BREEZE-M DEB (TANK) - Orbit

View from above orbital plane
View from above orbital plane
View from above satellite
View from above satellite

Ground track
Ground track

The orbit data is extracted from the following two-line orbital elements,

1 31863U 07032B   15211.43597672  .00000135  00000-0  88439-4 0  9991
2 31863 045.9188 219.9499 4990729 113.9537 305.1869 05.51602396161557
Epoch (UTC): 30 July 2015 10:27:48
Eccentricity: 0.4990729
inclination: 45.9188°
perigee height: 400 km
apogee height: 13905 km
right ascension of ascending node: 219.9499°
argument of perigee: 113.9537°
revolutions per day: 5.51602396
mean anomaly at epoch: 305.1869°
orbit number at epoch: 16155

The dashed part of the orbit path shows where the satellite is in the earth's shadow,  

DLR